Location: Noverd
(38.0910°N, 121.6877°W)
Time: 05:30:49
(UTC+00:00)

SL-16 R/B - Pass Details

Date: 13 February 2026
Orbit: 841 x 845 km, 71.0° (Epoch: 5 March)

Event Time Altitude Azimuth Distance (km) Brightness Sun altitude
Rises 14:04:21 0° 193° (SSW) 3,381 5.3 -11.3°
Reaches altitude 10° 14:06:47 10° 191° (S) 2,451 4.6 -10.9°
Maximum altitude 14:12:22 69° 109° (ESE) 902 2.6 -9.8°
Drops below altitude 10° 14:17:59 10° 27° (NNE) 2,468 4.9 -8.7°
Sets 14:20:27 0° 26° (NNE) 3,408 5.6 -8.2°
